Погода в Квитневом

Украина / Житомирская область     49°59′28″N   29°31′02″E
темп.,
°C
ветер,
м/с
пор.,
м/с
влажн.,
%
обл.,
%
осадки,
мм/ч
давл.,
гПа
погр.,
м
23 октября, сб
сб2300:00+9юз47685 0.0 1013124
03:00+9з513705 0.0 1014420
06:00+6юз49845 0.0 1014182
09:00+8з6125761 0.0 1015830
12:00+11з911435 0.0 10171422
15:00+12зсз810345 0.0 10171925
18:00+9зсз59435 0.0 1019267
21:00+6з410627 0.0 1021296
24 октября, вс
вс2400:00+4з5107138 0.0 1022264
03:00+5з5106694 0.0 1023583
06:00+3з5118483 0.0 1023312
09:00+5зсз61077100 0.0 1025736
12:00+8сз795558 0.0 10261496
15:00+6ссз81063100 0.1 10271443
18:00+6ссз61055100 0.0 10291517
21:00+4ссз597199 0.0 1031536
25 октября, пн
пн2500:00+2сз36795 0.0 1032137
03:000сз347731 0.0 103362
06:000сз33795 0.0 103342
09:00+1ссз12725 0.0 103494
12:00+6ссв11535 0.0 1034637
15:00+8юв11420 0.0 1032881
18:00+5ююв22495 0.0 103210
21:00+3ююв34545 0.0 103247
26 октября, вт
вт2600:00+2ю46583 0.0 1032108
03:00+1ю37645 0.0 1032124
06:00+1ю48675 0.0 1031141
09:00+2ю411600 0.0 1030272
12:00+9ю68355 0.0 1029680
15:00+12ююз67293 0.0 1027973
18:00+7ю47400 0.0 1026106
21:00+5ю410540 0.0 1026178
27 октября, ср
ср2700:00+3ю410620 0.0 1026198
03:00+2ююз410710 0.0 1026181
06:00+2ююз49850 0.0 1025169
09:00+3ююз49845 0.0 1025240
12:00+10юз57593 0.0 1024694
15:00+12з45435 0.0 1023929
18:00+8сз335023 0.0 102431
21:00+6сз386950 0.0 1025144